Location: Austin
(30.3000°N, 97.7500°W)
Time: 04:17:55
(UTC-05:00)

CZ-4B R/B - Pass Details

Date: 18 March 2023
Orbit: 808 x 881 km, 99.0° (Epoch: 01 April)

Event Time Altitude Azimuth Distance (km) Brightness Sun altitude
Rises 19:55:56 0° 140° (SE) 3,455 6.0 -4.0°
Reaches altitude 10° 19:58:33 10° 130° (SE) 2,525 5.2 -4.6°
Maximum altitude 20:03:26 31° 70° (ENE) 1,484 4.0 -5.6°
Drops below altitude 10° 20:08:21 10° 10° (N) 2,541 5.6 -6.7°
Sets 20:10:59 0° 0° (N) 3,479 6.4 -7.3°
